Time,TemperatureF,DewpointF,PressureIn,WindDirection,WindDirectionDegrees,WindSpeedMPH,WindSpeedGustMPH,Humidity,HourlyPrecipIn,Conditions,Clouds,dailyrainin,SoftwareType,DateUTC
2013-03-06 00:01:00,47.0,44.0,30.10,WSW,248,0.0,-999.0,90,-99.99,,,-99.99,,2013-03-06 08:01:00,
2013-03-06 00:11:00,47.0,44.0,30.10,WSW,248,0.0,-999.0,90,-99.99,,,-99.99,,2013-03-06 08:11:00,
2013-03-06 00:21:00,47.0,44.0,30.10,WSW,245,0.0,-999.0,90,-99.99,,,-99.99,,2013-03-06 08:21:00,
2013-03-06 00:31:00,47.0,44.0,30.10,WSW,245,0.0,-999.0,90,-99.99,,,-99.99,,2013-03-06 08:31:00,
2013-03-06 00:42:00,47.0,44.0,30.10,WSW,245,0.0,-999.0,90,-99.99,,,-99.99,,2013-03-06 08:42:00,
2013-03-06 00:52:00,47.0,44.0,30.11,WSW,245,0.0,-999.0,90,-99.99,,,-99.99,,2013-03-06 08:52:00,
2013-03-06 01:01:00,47.0,44.0,30.10,WSW,245,0.0,-999.0,90,-99.99,,,-99.99,,2013-03-06 09:01:00,
2013-03-06 01:12:00,47.0,44.0,30.10,WSW,245,0.0,-999.0,90,-99.99,,,-99.99,,2013-03-06 09:12:00,
2013-03-06 01:21:00,47.0,44.0,30.10,WSW,245,0.0,-999.0,90,-99.99,,,-99.99,,2013-03-06 09:21:00,
2013-03-06 01:31:00,47.0,44.0,30.10,WSW,245,0.0,-999.0,90,-99.99,,,-99.99,,2013-03-06 09:31:00,
2013-03-06 01:41:00,47.0,44.0,30.10,WSW,245,0.0,-999.0,90,-99.99,,,-99.99,,2013-03-06 09:41:00,
2013-03-06 01:51:00,47.0,44.0,30.10,WSW,245,0.0,-999.0,90,-99.99,,,-99.99,,2013-03-06 09:51:00,
2013-03-06 02:01:00,47.0,44.0,30.11,WSW,245,0.0,-999.0,90,-99.99,,,-99.99,,2013-03-06 10:01:00,
2013-03-06 02:11:00,47.0,44.0,30.11,WSW,245,0.0,-999.0,90,-99.99,,,-99.99,,2013-03-06 10:11:00,
2013-03-06 02:21:00,47.0,44.0,30.11,WSW,245,0.0,-999.0,90,-99.99,,,-99.99,,2013-03-06 10:21:00,
2013-03-06 02:31:00,47.0,44.0,30.11,WSW,245,0.0,-999.0,90,-99.99,,,-99.99,,2013-03-06 10:31:00,
2013-03-06 02:41:00,47.0,44.0,30.11,WSW,245,0.0,-999.0,90,-99.99,,,-99.99,,2013-03-06 10:41:00,
2013-03-06 02:51:00,47.0,44.0,30.11,WSW,245,0.0,-999.0,90,-99.99,,,-99.99,,2013-03-06 10:51:00,
2013-03-06 03:01:00,47.0,44.0,30.11,WSW,245,0.0,-999.0,90,-99.99,,,-99.99,,2013-03-06 11:01:00,
2013-03-06 03:11:00,47.0,44.0,30.11,WSW,245,0.0,-999.0,90,-99.99,,,-99.99,,2013-03-06 11:11:00,
2013-03-06 03:22:00,47.0,44.0,30.10,WSW,245,0.0,-999.0,90,-99.99,,,-99.99,,2013-03-06 11:22:00,
2013-03-06 03:31:00,46.0,43.0,30.10,WSW,245,0.0,-999.0,90,-99.99,,,-99.99,,2013-03-06 11:31:00,
2013-03-06 03:42:00,46.0,43.0,30.10,WSW,245,0.0,-999.0,90,-99.99,,,-99.99,,2013-03-06 11:42:00,
2013-03-06 03:52:00,46.0,43.0,30.09,WSW,245,0.0,-999.0,90,-99.99,,,-99.99,,2013-03-06 11:52:00,
2013-03-06 04:01:00,46.0,43.0,30.09,WSW,245,0.0,-999.0,90,-99.99,,,-99.99,,2013-03-06 12:01:00,
2013-03-06 04:11:00,46.0,43.0,30.09,WSW,245,0.0,-999.0,90,-99.99,,,-99.99,,2013-03-06 12:11:00,
2013-03-06 04:21:00,45.0,42.0,30.09,WSW,245,0.0,-999.0,90,-99.99,,,-99.99,,2013-03-06 12:21:00,
2013-03-06 04:32:00,45.0,42.0,30.10,WSW,245,0.0,-999.0,90,-99.99,,,-99.99,,2013-03-06 12:32:00,
2013-03-06 04:42:00,45.0,42.0,30.10,WSW,245,0.0,-999.0,90,-99.99,,,-99.99,,2013-03-06 12:42:00,
2013-03-06 04:52:00,45.0,43.0,30.09,WSW,245,0.0,-999.0,91,-99.99,,,-99.99,,2013-03-06 12:52:00,
2013-03-06 05:01:00,44.0,42.0,30.10,WSW,245,0.0,-999.0,91,-99.99,,,-99.99,,2013-03-06 13:01:00,
2013-03-06 05:11:00,44.0,42.0,30.10,WSW,245,0.0,-999.0,91,-99.99,,,-99.99,,2013-03-06 13:11:00,
2013-03-06 05:21:00,44.0,42.0,30.10,WSW,245,0.0,-999.0,91,-99.99,,,-99.99,,2013-03-06 13:21:00,
2013-03-06 05:31:00,44.0,42.0,30.10,WSW,245,0.0,-999.0,91,-99.99,,,-99.99,,2013-03-06 13:31:00,
2013-03-06 05:42:00,44.0,42.0,30.10,WSW,245,0.0,-999.0,91,-99.99,,,-99.99,,2013-03-06 13:42:00,
2013-03-06 05:51:00,43.0,41.0,30.09,WSW,245,0.0,-999.0,92,-99.99,,,-99.99,,2013-03-06 13:51:00,
2013-03-06 06:01:00,43.0,41.0,30.09,WSW,245,0.0,-999.0,92,-99.99,,,-99.99,,2013-03-06 14:01:00,
2013-03-06 06:11:00,43.0,41.0,30.09,WSW,245,0.0,-999.0,92,-99.99,,,-99.99,,2013-03-06 14:11:00,
2013-03-06 06:21:00,43.0,41.0,30.10,WSW,245,0.0,-999.0,93,-99.99,,,-99.99,,2013-03-06 14:21:00,
2013-03-06 06:32:00,43.0,41.0,30.10,WSW,245,0.0,-999.0,93,-99.99,,,-99.99,,2013-03-06 14:32:00,
2013-03-06 06:41:00,43.0,41.0,30.10,WSW,245,0.0,-999.0,93,-99.99,,,-99.99,,2013-03-06 14:41:00,
2013-03-06 06:52:00,43.0,41.0,30.10,WSW,245,0.0,-999.0,93,-99.99,,,-99.99,,2013-03-06 14:52:00,
2013-03-06 07:01:00,43.0,41.0,30.11,WSW,245,0.0,-999.0,93,-99.99,,,-99.99,,2013-03-06 15:01:00,
2013-03-06 07:11:00,43.0,41.0,30.11,WSW,245,0.0,-999.0,93,-99.99,,,-99.99,,2013-03-06 15:11:00,
2013-03-06 07:21:00,44.0,42.0,30.11,WSW,245,0.0,-999.0,94,-99.99,,,-99.99,,2013-03-06 15:21:00,
2013-03-06 07:32:00,45.0,43.0,30.12,WSW,245,0.0,-999.0,93,-99.99,,,-99.99,,2013-03-06 15:32:00,
2013-03-06 07:42:00,45.0,43.0,30.12,WSW,245,0.0,-999.0,93,-99.99,,,-99.99,,2013-03-06 15:42:00,
2013-03-06 07:51:00,45.0,43.0,30.12,WSW,245,0.0,-999.0,93,-99.99,,,-99.99,,2013-03-06 15:51:00,
2013-03-06 08:01:00,46.0,44.0,30.12,WSW,245,0.0,-999.0,93,-99.99,,,-99.99,,2013-03-06 16:01:00,
2013-03-06 08:11:00,46.0,44.0,30.12,WSW,245,0.0,-999.0,93,-99.99,,,-99.99,,2013-03-06 16:11:00,
2013-03-06 08:21:00,47.0,45.0,30.12,WSW,245,0.0,-999.0,91,-99.99,,,-99.99,,2013-03-06 16:21:00,
2013-03-06 08:32:00,49.0,46.0,30.12,WSW,244,0.0,-999.0,89,-99.99,,,-99.99,,2013-03-06 16:32:00,
2013-03-06 08:41:00,49.0,46.0,30.12,WSW,244,0.0,-999.0,89,-99.99,,,-99.99,,2013-03-06 16:41:00,
2013-03-06 08:51:00,50.0,46.0,30.12,WSW,245,0.0,-999.0,85,-99.99,,,-99.99,,2013-03-06 16:51:00,
2013-03-06 09:01:00,50.0,44.0,30.13,NNE,19,1.0,-999.0,80,-99.99,,,-99.99,,2013-03-06 17:01:00,
2013-03-06 09:11:00,50.0,44.0,30.13,NNE,19,1.0,-999.0,80,-99.99,,,-99.99,,2013-03-06 17:11:00,
2013-03-06 09:21:00,50.0,43.0,30.11,NNE,33,0.0,-999.0,77,-99.99,,,-99.99,,2013-03-06 17:21:00,
2013-03-06 09:31:00,52.0,44.0,30.12,NW,315,0.0,-999.0,75,-99.99,,,-99.99,,2013-03-06 17:31:00,
2013-03-06 09:41:00,52.0,44.0,30.12,NW,315,0.0,-999.0,75,-99.99,,,-99.99,,2013-03-06 17:41:00,
2013-03-06 09:52:00,53.0,44.0,30.12,SSE,163,0.0,-999.0,71,-99.99,,,-99.99,,2013-03-06 17:52:00,
2013-03-06 10:01:00,52.0,42.0,30.12,East,99,1.0,-999.0,69,-99.99,,,-99.99,,2013-03-06 18:01:00,
2013-03-06 10:28:00,53.0,43.0,30.12,ESE,103,0.0,-999.0,69,-99.99,,,-99.99,,2013-03-06 18:28:00,
2013-03-06 10:42:00,54.0,44.0,30.12,SSE,168,1.0,-999.0,68,-99.99,,,-99.99,,2013-03-06 18:42:00,
2013-03-06 10:52:00,54.0,43.0,30.12,SW,223,1.0,-999.0,67,-99.99,,,-99.99,,2013-03-06 18:52:00,
2013-03-06 11:02:00,54.0,43.0,30.12,SW,217,0.0,-999.0,67,-99.99,,,-99.99,,2013-03-06 19:02:00,
2013-03-06 11:11:00,54.0,43.0,30.12,SW,217,0.0,-999.0,67,-99.99,,,-99.99,,2013-03-06 19:11:00,
2013-03-06 11:21:00,54.0,44.0,30.12,SW,229,1.0,-999.0,69,-99.99,,,-99.99,,2013-03-06 19:21:00,
2013-03-06 11:32:00,53.0,45.0,30.12,SSW,213,0.0,-999.0,73,-99.99,,,-99.99,,2013-03-06 19:32:00,
2013-03-06 11:42:00,53.0,45.0,30.12,SSW,213,0.0,-999.0,73,-99.99,,,-99.99,,2013-03-06 19:42:00,
2013-03-06 11:52:00,53.0,45.0,30.12,SW,233,0.0,-999.0,74,-99.99,,,-99.99,,2013-03-06 19:52:00,
2013-03-06 12:01:00,53.0,45.0,30.11,SW,233,0.0,-999.0,75,-99.99,,,-99.99,,2013-03-06 20:01:00,
2013-03-06 12:11:00,53.0,45.0,30.11,SW,233,0.0,-999.0,75,-99.99,,,-99.99,,2013-03-06 20:11:00,
2013-03-06 12:21:00,53.0,45.0,30.11,SW,233,0.0,-999.0,75,-99.99,,,-99.99,,2013-03-06 20:21:00,
2013-03-06 12:32:00,52.0,44.0,30.11,SW,233,0.0,-999.0,75,-99.99,,,-99.99,,2013-03-06 20:32:00,
2013-03-06 12:42:00,52.0,44.0,30.11,SW,233,0.0,-999.0,75,-99.99,,,-99.99,,2013-03-06 20:42:00,
2013-03-06 12:52:00,52.0,45.0,30.10,SW,233,0.0,-999.0,78,-99.99,,,-99.99,,2013-03-06 20:52:00,
2013-03-06 13:02:00,52.0,46.0,30.09,SW,233,0.0,-999.0,79,-99.99,,,-99.99,,2013-03-06 21:02:00,
2013-03-06 13:11:00,52.0,46.0,30.09,SW,233,0.0,-999.0,79,-99.99,,,-99.99,,2013-03-06 21:11:00,
2013-03-06 13:22:00,52.0,46.0,30.09,SW,233,0.0,-999.0,80,-99.99,,,-99.99,,2013-03-06 21:22:00,
2013-03-06 13:32:00,51.0,46.0,30.09,SW,233,0.0,-999.0,83,-99.99,,,-99.99,,2013-03-06 21:32:00,
2013-03-06 13:42:00,51.0,46.0,30.09,SW,233,0.0,-999.0,83,-99.99,,,-99.99,,2013-03-06 21:42:00,
2013-03-06 13:51:00,51.0,47.0,30.08,SW,233,0.0,-999.0,85,-99.99,,,-99.99,,2013-03-06 21:51:00,
2013-03-06 14:01:00,51.0,47.0,30.07,SW,233,0.0,-999.0,86,-99.99,,,-99.99,,2013-03-06 22:01:00,
2013-03-06 14:11:00,51.0,47.0,30.07,SW,233,0.0,-999.0,86,-99.99,,,-99.99,,2013-03-06 22:11:00,
2013-03-06 14:21:00,51.0,47.0,30.07,SW,233,0.0,-999.0,86,-99.99,,,-99.99,,2013-03-06 22:21:00,
2013-03-06 14:31:00,51.0,47.0,30.06,SW,233,0.0,-999.0,86,-99.99,,,-99.99,,2013-03-06 22:31:00,
2013-03-06 14:41:00,51.0,47.0,30.06,SW,233,0.0,-999.0,86,-99.99,,,-99.99,,2013-03-06 22:41:00,
2013-03-06 14:51:00,52.0,48.0,30.06,SW,233,0.0,-999.0,86,-99.99,,,-99.99,,2013-03-06 22:51:00,
2013-03-06 15:01:00,52.0,48.0,30.06,SW,233,0.0,-999.0,85,-99.99,,,-99.99,,2013-03-06 23:01:00,
2013-03-06 15:11:00,52.0,48.0,30.06,SW,233,0.0,-999.0,85,-99.99,,,-99.99,,2013-03-06 23:11:00,
2013-03-06 15:21:00,53.0,48.0,30.06,SW,233,0.0,-999.0,84,-99.99,,,-99.99,,2013-03-06 23:21:00,
2013-03-06 15:31:00,53.0,48.0,30.05,SW,233,0.0,-999.0,84,-99.99,,,-99.99,,2013-03-06 23:31:00,
2013-03-06 15:41:00,53.0,48.0,30.05,SW,233,0.0,-999.0,84,-99.99,,,-99.99,,2013-03-06 23:41:00,
2013-03-06 15:52:00,53.0,48.0,30.05,SW,233,0.0,-999.0,84,-99.99,,,-99.99,,2013-03-06 23:52:00,
2013-03-06 16:01:00,53.0,48.0,30.04,SW,233,0.0,-999.0,83,-99.99,,,-99.99,,2013-03-07 00:01:00,
2013-03-06 16:11:00,53.0,48.0,30.04,SW,233,0.0,-999.0,83,-99.99,,,-99.99,,2013-03-07 00:11:00,
2013-03-06 16:21:00,52.0,47.0,30.04,WSW,238,0.0,-999.0,82,-99.99,,,-99.99,,2013-03-07 00:21:00,
2013-03-06 16:32:00,52.0,47.0,30.04,WSW,242,1.0,-999.0,84,-99.99,,,-99.99,,2013-03-07 00:32:00,
2013-03-06 16:41:00,52.0,47.0,30.04,WSW,242,1.0,-999.0,84,-99.99,,,-99.99,,2013-03-07 00:41:00,
2013-03-06 16:51:00,52.0,48.0,30.04,WSW,242,0.0,-999.0,86,-99.99,,,-99.99,,2013-03-07 00:51:00,
2013-03-06 17:01:00,52.0,48.0,30.04,WSW,242,0.0,-999.0,87,-99.99,,,-99.99,,2013-03-07 01:01:00,
2013-03-06 17:11:00,52.0,48.0,30.04,WSW,242,0.0,-999.0,87,-99.99,,,-99.99,,2013-03-07 01:11:00,
2013-03-06 17:21:00,51.0,48.0,30.04,WSW,242,0.0,-999.0,89,-99.99,,,-99.99,,2013-03-07 01:21:00,
2013-03-06 17:31:00,51.0,48.0,30.03,WSW,242,0.0,-999.0,89,-99.99,,,-99.99,,2013-03-07 01:31:00,
2013-03-06 17:41:00,51.0,48.0,30.03,WSW,242,0.0,-999.0,89,-99.99,,,-99.99,,2013-03-07 01:41:00,
2013-03-06 17:51:00,51.0,48.0,30.03,WSW,242,0.0,-999.0,90,-99.99,,,-99.99,,2013-03-07 01:51:00,
2013-03-06 18:01:00,50.0,47.0,30.03,WSW,242,0.0,-999.0,91,-99.99,,,-99.99,,2013-03-07 02:01:00,
2013-03-06 18:11:00,50.0,47.0,30.03,WSW,242,0.0,-999.0,91,-99.99,,,-99.99,,2013-03-07 02:11:00,
2013-03-06 18:21:00,50.0,47.0,30.03,WSW,243,0.0,-999.0,91,-99.99,,,-99.99,,2013-03-07 02:21:00,
2013-03-06 18:31:00,50.0,48.0,30.03,WSW,243,0.0,-999.0,92,-99.99,,,-99.99,,2013-03-07 02:31:00,
2013-03-06 18:41:00,50.0,48.0,30.03,WSW,243,0.0,-999.0,92,-99.99,,,-99.99,,2013-03-07 02:41:00,
2013-03-06 18:51:00,50.0,48.0,30.03,WSW,243,0.0,-999.0,92,-99.99,,,-99.99,,2013-03-07 02:51:00,
2013-03-06 19:01:00,49.0,47.0,30.02,WSW,242,0.0,-999.0,92,-99.99,,,-99.99,,2013-03-07 03:01:00,
2013-03-06 19:11:00,49.0,47.0,30.02,WSW,243,0.0,-999.0,92,-99.99,,,-99.99,,2013-03-07 03:11:00,
2013-03-06 19:21:00,49.0,47.0,30.02,WSW,243,0.0,-999.0,92,-99.99,,,-99.99,,2013-03-07 03:21:00,
2013-03-06 19:31:00,49.0,47.0,30.03,WSW,242,0.0,-999.0,92,-99.99,,,-99.99,,2013-03-07 03:31:00,
2013-03-06 19:41:00,49.0,47.0,30.03,WSW,242,0.0,-999.0,92,-99.99,,,-99.99,,2013-03-07 03:41:00,
2013-03-06 19:51:00,49.0,47.0,30.03,WSW,242,0.0,-999.0,92,-99.99,,,-99.99,,2013-03-07 03:51:00,
2013-03-06 20:01:00,49.0,47.0,30.03,WSW,243,0.0,-999.0,93,-99.99,,,-99.99,,2013-03-07 04:01:00,
2013-03-06 20:11:00,49.0,47.0,30.03,WSW,243,0.0,-999.0,93,-99.99,,,-99.99,,2013-03-07 04:11:00,
2013-03-06 20:21:00,49.0,47.0,30.02,WSW,243,0.0,-999.0,93,-99.99,,,-99.99,,2013-03-07 04:21:00,
2013-03-06 20:31:00,49.0,47.0,30.02,WSW,243,0.0,-999.0,93,-99.99,,,-99.99,,2013-03-07 04:31:00,
2013-03-06 20:41:00,49.0,47.0,30.02,WSW,243,0.0,-999.0,93,-99.99,,,-99.99,,2013-03-07 04:41:00,
2013-03-06 20:51:00,49.0,47.0,30.02,WSW,243,0.0,-999.0,94,-99.99,,,-99.99,,2013-03-07 04:51:00,
2013-03-06 21:01:00,48.0,46.0,30.02,WSW,243,0.0,-999.0,94,-99.99,,,-99.99,,2013-03-07 05:01:00,
2013-03-06 21:12:00,48.0,46.0,30.02,WSW,243,0.0,-999.0,94,-99.99,,,-99.99,,2013-03-07 05:12:00,
2013-03-06 21:22:00,48.0,46.0,30.02,WSW,243,0.0,-999.0,94,-99.99,,,-99.99,,2013-03-07 05:22:00,
2013-03-06 21:31:00,48.0,46.0,30.02,WSW,242,0.0,-999.0,94,-99.99,,,-99.99,,2013-03-07 05:31:00,
2013-03-06 21:41:00,48.0,46.0,30.02,WSW,242,0.0,-999.0,94,-99.99,,,-99.99,,2013-03-07 05:41:00,
2013-03-06 21:52:00,48.0,46.0,30.02,WSW,243,0.0,-999.0,94,-99.99,,,-99.99,,2013-03-07 05:52:00,
2013-03-06 22:01:00,48.0,46.0,30.02,WSW,243,0.0,-999.0,94,-99.99,,,-99.99,,2013-03-07 06:01:00,
2013-03-06 22:11:00,48.0,46.0,30.02,WSW,243,0.0,-999.0,94,-99.99,,,-99.99,,2013-03-07 06:11:00,
2013-03-06 22:21:00,48.0,46.0,30.02,WSW,243,0.0,-999.0,94,-99.99,,,-99.99,,2013-03-07 06:21:00,
2013-03-06 22:31:00,48.0,46.0,30.01,WSW,243,0.0,-999.0,94,-99.99,,,-99.99,,2013-03-07 06:31:00,
2013-03-06 22:41:00,48.0,47.0,30.01,WSW,243,0.0,-999.0,95,-99.99,,,-99.99,,2013-03-07 06:41:00,
2013-03-06 22:51:00,48.0,47.0,30.01,WSW,243,0.0,-999.0,95,-99.99,,,-99.99,,2013-03-07 06:51:00,
2013-03-06 23:01:00,48.0,47.0,30.01,WSW,243,0.0,-999.0,95,-99.99,,,-99.99,,2013-03-07 07:01:00,
2013-03-06 23:11:00,48.0,47.0,30.01,WSW,243,0.0,-999.0,95,-99.99,,,-99.99,,2013-03-07 07:11:00,
2013-03-06 23:21:00,48.0,47.0,30.01,WSW,242,0.0,-999.0,95,-99.99,,,-99.99,,2013-03-07 07:21:00,
2013-03-06 23:31:00,48.0,47.0,30.01,WSW,242,0.0,-999.0,95,-99.99,,,-99.99,,2013-03-07 07:31:00,
2013-03-06 23:41:00,48.0,47.0,30.01,WSW,242,0.0,-999.0,95,-99.99,,,-99.99,,2013-03-07 07:41:00,
2013-03-06 23:52:00,48.0,47.0,30.00,WSW,242,0.0,-999.0,95,-99.99,,,-99.99,,2013-03-07 07:52:00,